Presure
220 209 159 200 200 194 183 194 200 214 222 245 222 249 244 219 217 205 205 200 196 200 183 176 156 160 175 164 164 210 180 202 214 217 211 201 204 211 216 229 235 242 230 226 215
205 215 208 206 196 196 193 182 193 198 207 232 227 235 246 243 236 216 217 219 208 208 204 192 206 219 186 159 201 179 207 216 214 206 209 202 197 206 201 204 214 220 236 243 211
223 208 221 210 180 200 194 192 178 185 196 213 230 219 203 236 238 240 232 210 208 206 212 234 215 222 219 168 207 180 213 208 208 201 204 199 193 196 193 187 194 208 215 226 238
233 239 217 211 210 200 198 194 189 184 187 193 211 220 226 206 235 231 228 232 224 225 226 219 220 215 210 205 205 204 202 191 197 195 191 189 191 190 191 178 196 194 201 208 213
228 238 240 219 207 208 204 195 194 190 183 182 193 209 220 210 217 218 223 222 221 212 210 204 207 202 203 202 202 193 185 172 177 191 190 182 177 177 188 183 179 184 193 193 197
224 231 233 244 221 207 211 204 195 194 189 182 176 197 200 212 213 217 214 208 207 202 204 198 195 202 191 191 183 178 181 185 183 181 181 182 184 193 193 187 186 180 177 189 198
220 228 247 242 247 218 206 209 200 196 195 189 182 174 195 201 206 210 204 199 201 199 194 195 198 183 187 179 187 184 186 184 179 191 193 191 180 180 183 185 180 192 195 187 191
239 238 236 240 252 247 228 204 211 199 196 194 189 182 186 190 196 186 196 183 185 182 184 183 182 179 186 185 187 181 177 181 184 187 188 188 187 181 181 180 178 183 178 180 189
242 247 247 261 270 257 236 230 213 209 207 195 191 183 184 183 166 190 193 189 180 182 183 186 184 183 184 181 177 183 180 178 178 180 180 179 188 182 175 171 188 180 177 180 186
251 257 268 273 289 280 244 232 237 216 228 210 199 189 186 187 187 184 187 189 188 189 187 182 184 186 183 177 182 178 175 176 177 177 182 185 185 162 189 192 191 192 200 200 194
291 276 274 240 243 248 242 237 226 233 225 222 202 196 191 188 183 183 188 189 188 187 186 185 184 183 176 179 177 176 171 176 178 176 175 179 187 189 189 187 223 225 231 234 243
253 252 244 231 238 241 230 238 236 234 240 222 222 197 197 184 189 181 182 188 186 184 185 186 180 180 181 180 175 168 169 175 176 169 170 178 197 223 184 216 218 217 257 230 228
248 243 244 244 243 241 242 242 250 236 245 238 227 215 201 201 192 190 180 186 185 185 181 179 178 176 183 182 175 167 166 167 174 177 178 177 193 222 204 215 213 337 338 340 340
261 300 317 325 318 318 315 302 308 319 267 242 241 208 212 207 198 197 191 180 187 178 182 178 181 179 181 182 172 167 170 176 171 177 182 188 180 220 204 211 221 332 330 332 332
404 403 412 420 410 409 399 386 386 385 385 434 254 239 223 211 202 199 195 192 180 183 181 177 182 178 183 178 168 168 166 169 177 178 184 186 174 216 199 210 218 239 310 317 320
425 408 404 391 403 391 384 374 373 374 382 409 400 410 234 225 206 204 200 201 191 181 184 181 184 181 181 183 170 166 170 178 175 172 174 185 188 211 202 202 206 217 260 274 295
455 430 406 390 372 377 373 363 370 377 379 396 407 380 416 232 217 206 206 189 191 171 185 182 183 181 188 186 170 168 175 185 176 177 171 171 183 204 203 200 201 210 219 245 210
478 447 412 398 374 363 381 357 362 369 167 370 353 392 414 384 233 212 206 201 197 190 190 186 187 184 187 181 176 174 184 181 178 168 181 179 185 201 209 199 213 199 207 210 222
460 475 434 395 374 354 358 360 363 359 335 352 334 365 390 376 254 217 208 203 204 195 191 185 185 186 180 179 185 175 171 181 188 184 184 183 180 194 206 198 201 209 209 203 205
447 451 448 399 384 353 355 382 345 330 333 326 355 324 360 358 335 231 214 205 202 190 195 187 191 193 185 189 186 189 170 176 182 191 174 183 174 185 196 207 204 202 207 205 194
436 426 438 403 399 358 364 363 340 318 327 319 341 364 339 329 326 237 215 208 200 204 193 194 192 191 193 187 169 169 173 169 178 176 195 174 186 182 187 194 203 205 199 200 202
430 416 420 445 383 360 360 357 328 310 317 337 331 352 326 317 308 261 222 211 207 199 202 187 193 196 189 194 191 171 167 169 175 181 188 196 186 187 193 186 193 199 206 204 203
422 428 367 412 403 358 351 323 326 311 315 324 320 352 321 306 315 293 227 215 209 201 199 198 191 199 195 194 186 188 177 172 174 183 187 190 196 189 188 189 185 188 196 200 205
406 378 391 405 398 351 348 331 319 315 309 327 311 343 310 306 306 295 229 220 209 204 206 202 197 190 200 188 183 180 192 186 178 184 176 184 194 197 185 189 196 203 199 194 196
406 383 404 376 382 341 335 325 308 342 304 324 315 344 306 299 292 288 241 226 217 209 203 199 202 201 195 197 194 193 190 190 171 188 175 195 190 193 190 203 197 209 201 201 194
374 391 385 379 345 338 339 339 321 311 329 320 307 328 295 294 290 271 267 229 221 202 209 192 192 202 205 198 191 197 195 192 177 192 169 206 186 187 198 181 195 198 206 208 205
378 366 372 371 341 328 333 355 340 315 297 305 294 314 286 292 289 270 265 236 227 220 214 206 204 202 202 206 197 186 184 189 192 195 188 192 183 203 185 199 183 199 206 190 191
Wind_Speed
45 43 47 42 41 42 46 40 38 31 34 29 39 35 43 57 60 67 70 72 71 74 71 68 61 63 65 60 63 52 60 57 47 40 39 46 47 38 38 33 35 38 50 54 60
42 49 47 46 46 45 47 49 43 39 34 33 35 35 35 40 47 57 59 60 65 66 64 62 64 57 62 62 54 58 49 44 42 42 40 44 47 41 38 39 38 40 39 44 57
45 48 53 55 51 50 52 52 55 49 42 34 33 39 45 37 40 40 45 57 57 58 55 46 54 51 48 59 48 54 43 41 41 41 39 41 44 42 40 44 47 43 42 42 42
37 48 56 57 62 56 58 59 56 55 50 45 37 36 39 45 40 41 43 44 47 46 46 50 48 46 48 49 45 43 42 47 42 42 43 44 46 45 42 46 45 48 46 45 42
45 42 50 64 63 66 63 63 63 60 58 55 47 41 39 45 43 44 45 46 46 48 49 49 48 48 47 44 42 45 48 53 50 42 44 48 51 51 46 48 50 50 49 49 47
54 55 48 57 70 70 70 70 68 67 64 62 61 48 47 46 47 47 48 49 49 51 50 50 50 48 48 47 50 49 50 47 48 48 50 49 49 48 46 50 52 56 57 51 50
54 57 62 56 65 76 72 77 74 74 73 68 64 64 53 51 51 51 52 53 53 52 53 52 50 52 49 50 47 47 49 48 50 48 48 49 53 53 48 53 54 52 53 55 54
55 57 61 67 66 71 82 76 84 78 80 77 72 68 66 59 59 62 58 61 59 59 57 56 55 54 49 48 48 49 50 49 47 48 48 48 52 55 53 56 56 56 56 56 57
60 64 67 65 64 67 75 86 87 87 87 85 79 77 73 71 64 65 64 65 62 62 60 59 57 55 52 51 51 49 48 49 49 49 50 52 52 54 53 57 56 58 58 59 60
66 68 70 66 63 63 74 82 90 91 95 93 88 83 79 76 75 72 69 67 66 65 64 61 59 56 54 53 50 50 50 50 51 49 51 52 52 47 53 54 54 55 58 58 60
66 67 66 65 64 63 69 78 83 92 96 98 93 93 88 85 80 76 74 70 69 68 66 62 60 60 56 54 53 51 52 50 51 49 52 52 50 53 52 50 51 54 56 59 65
70 69 71 73 73 71 73 76 83 89 94 100 103 99 98 87 88 81 79 76 74 73 68 65 66 60 59 56 55 55 53 51 51 50 51 52 46 42 44 48 47 53 50 55 57
83 83 85 85 85 82 87 88 91 93 95 104 108 109 108 103 94 89 81 82 79 73 73 72 67 64 60 57 58 56 55 52 53 51 52 49 47 41 42 45 45 30 26 26 27
94 97 95 96 95 93 93 96 97 99 102 98 111 95 115 110 102 98 90 85 83 77 78 72 69 67 64 59 61 59 54 50 53 52 51 47 50 37 39 39 37 24 19 20 24
93 86 73 64 63 58 58 64 68 69 82 65 107 116 113 116 107 105 99 91 85 83 79 77 75 72 68 62 62 60 53 54 53 52 49 46 48 34 38 36 32 30 14 10 15
69 69 62 63 54 52 52 58 62 66 65 60 60 56 119 119 116 115 106 98 95 82 83 79 77 73 70 64 64 59 59 54 54 51 47 45 42 33 34 35 32 28 19 12 10
57 58 61 58 55 53 50 52 60 63 55 50 47 57 55 122 122 119 113 98 97 78 86 83 78 74 74 67 66 62 59 55 55 54 49 45 45 36 31 33 34 29 26 17 31
41 53 56 56 53 53 51 53 62 54 16 49 54 46 51 72 123 125 118 113 102 92 91 85 81 78 75 71 67 61 60 56 56 49 51 49 44 37 32 34 32 32 30 27 23
33 41 53 53 52 53 51 60 53 46 52 49 55 49 58 70 121 126 124 115 110 99 96 89 82 80 75 72 68 64 58 58 53 53 50 48 46 41 35 36 35 33 31 32 31
27 32 40 51 51 53 55 52 48 52 53 53 45 56 62 68 79 127 125 118 111 99 99 91 87 84 78 75 68 66 58 54 55 53 48 49 45 44 41 37 37 37 34 34 37
25 32 32 51 53 59 56 47 49 53 52 54 49 53 66 72 79 124 126 125 114 113 101 97 89 85 82 74 63 60 60 51 55 54 53 49 47 44 44 43 41 39 39 38 38
22 30 30 38 53 55 50 48 50 55 54 50 54 61 68 75 82 110 126 126 120 108 109 92 94 91 81 79 72 60 56 57 58 59 56 51 50 46 44 47 47 43 41 42 42
20 22 32 30 51 52 48 51 54 58 57 53 57 63 69 77 81 89 126 126 120 110 108 104 86 93 84 77 68 67 67 61 58 59 57 56 54 48 47 49 51 47 46 46 46
26 29 28 32 42 50 51 60 65 62 61 55 61 62 72 75 80 86 124 127 120 115 113 109 101 86 92 79 73 66 70 66 61 61 62 60 56 53 50 53 53 52 49 51 51
23 25 30 43 45 49 53 62 61 54 62 59 61 63 74 77 82 87 121 126 126 120 111 100 107 104 90 89 78 74 68 66 61 67 60 66 60 54 55 55 57 54 53 53 54
23 24 28 37 49 49 52 56 59 60 63 59 58 62 72 78 84 91 102 127 128 104 118 82 84 100 100 88 73 75 70 68 68 70 55 66 63 58 56 59 58 57 57 58 58
28 29 27 38 48 50 49 49 58 64 62 62 66 72 78 76 87 97 102 125 125 125 118 107 103 96 93 95 81 64 69 71 72 72 69 67 64 61 60 62 57 60 61 58 58
Wind_Direction
270 267 275 262 260 255 253 247 248 259 257 258 243 244 237 237 237 239 238 239 240 241 242 241 246 246 246 250 250 250 258 257 251 248 240 246 251 245 249 246 245 244 241 237 238
282 271 264 258 257 256 253 250 247 245 252 261 247 244 239 233 231 235 236 236 238 241 242 244 247 241 247 248 247 253 249 245 245 248 243 244 249 247 241 249 247 245 244 241 240
265 271 263 259 263 252 252 250 248 246 243 254 253 243 237 232 229 224 227 232 232 235 237 226 237 233 234 248 240 249 240 244 244 246 243 245 250 248 239 245 251 250 248 246 243
281 268 258 258 252 253 247 248 248 245 242 242 246 243 239 233 225 222 222 220 223 221 219 227 225 228 232 236 236 238 238 243 243 244 244 243 248 250 244 240 248 250 250 249 246
292 279 266 255 256 249 247 245 245 244 242 240 238 239 236 232 227 222 217 218 218 220 221 225 225 229 232 233 233 236 241 246 246 243 244 244 246 251 247 244 244 250 251 250 250
292 285 276 259 248 250 243 244 242 242 240 239 240 233 232 227 224 220 217 219 218 222 222 224 228 226 232 233 239 240 243 243 243 244 243 245 246 247 248 247 244 244 251 248 250
295 283 277 275 251 245 247 240 242 239 237 236 236 239 229 225 223 220 218 220 219 221 225 224 222 231 232 237 236 237 240 242 246 246 246 244 245 247 246 247 250 248 247 249 248
286 282 275 268 264 246 241 242 239 240 237 236 233 233 231 228 222 227 217 225 225 227 228 230 229 231 229 232 233 235 239 243 244 248 250 248 246 248 248 252 253 251 252 250 249
290 280 277 271 264 246 241 238 238 239 234 236 234 237 231 230 241 222 221 223 227 226 227 227 229 229 228 229 232 235 238 241 243 244 246 249 254 250 251 254 254 253 255 253 251
287 282 279 274 267 253 241 240 237 238 236 231 231 234 234 228 227 228 222 224 226 223 222 227 227 227 227 230 232 234 238 242 245 248 252 254 256 255 258 258 259 260 259 254 252
286 280 275 274 265 256 247 241 240 236 235 234 231 231 229 230 230 229 225 220 224 227 226 224 226 227 229 229 231 233 238 244 247 248 253 257 260 262 261 262 266 264 260 253 251
292 286 280 279 271 261 255 247 240 238 233 232 229 231 229 237 229 232 228 222 221 226 227 225 225 225 228 228 231 234 238 243 248 251 254 259 261 274 264 267 266 266 267 259 250
297 291 285 278 271 266 261 256 246 238 232 228 229 224 229 227 232 229 233 225 224 223 226 228 228 228 228 228 231 235 241 245 249 253 257 260 263 274 267 271 271 292 284 265 261
297 290 282 275 271 267 262 259 256 252 236 227 229 230 226 227 230 228 227 230 223 227 225 228 229 228 227 227 231 237 239 241 249 251 256 259 263 276 270 272 279 300 287 267 259
284 281 276 269 268 262 258 255 253 251 252 249 229 225 223 226 226 230 231 228 230 227 225 227 227 229 228 225 233 237 241 242 245 250 255 257 262 276 270 275 282 292 316 286 267
279 277 270 268 260 257 250 248 247 245 244 246 239 232 222 221 225 227 228 222 225 233 224 227 227 228 230 230 233 238 239 238 244 249 252 255 262 270 267 271 271 278 315 296 302
267 262 261 258 258 248 242 240 241 239 238 240 237 226 222 220 219 226 224 233 228 222 225 227 227 228 231 228 234 237 237 237 241 245 252 253 259 267 263 265 267 272 275 301 254
262 251 248 245 243 244 235 231 233 231 241 231 227 221 217 215 216 221 224 225 227 231 226 227 226 227 228 229 233 238 236 238 238 246 246 251 256 261 266 260 269 261 265 263 265
260 251 239 238 233 236 229 226 229 225 225 228 220 218 209 212 214 217 221 224 223 225 227 228 228 227 228 229 232 238 242 239 241 241 243 247 254 259 263 255 261 265 262 258 256
255 248 236 230 223 226 223 227 216 217 219 220 215 210 205 208 207 214 217 222 223 227 225 230 228 228 229 230 230 232 242 241 240 245 244 245 249 256 263 266 260 259 263 260 252
240 242 230 223 220 219 218 211 210 213 216 215 209 200 200 205 206 212 215 219 223 224 228 228 230 229 229 229 234 236 239 241 242 244 248 244 245 247 256 260 264 264 259 260 261
231 234 228 221 214 216 211 203 204 210 211 207 206 198 199 202 204 209 213 218 222 224 224 229 231 230 231 230 230 237 241 242 243 244 245 250 247 244 251 254 259 262 265 265 264
241 233 229 211 215 211 205 199 200 207 207 203 206 201 198 200 202 204 212 216 221 224 227 229 232 232 234 233 232 232 236 241 243 246 247 249 251 246 248 252 254 257 260 263 266
214 221 215 199 213 206 199 194 200 201 206 200 205 204 197 199 202 204 212 215 219 223 225 229 231 233 233 231 232 233 232 237 243 245 246 249 252 253 248 253 257 261 258 258 261
213 211 189 199 203 202 199 199 207 196 205 199 204 205 196 198 199 202 208 214 217 221 224 227 228 231 234 235 236 236 236 237 243 243 248 250 251 253 252 261 258 264 259 261 259
209 181 188 197 198 198 199 199 203 200 199 200 201 202 197 199 198 201 206 213 216 220 223 222 226 232 234 236 235 238 240 240 240 245 245 253 252 252 258 255 261 264 270 270 270
208 210 198 199 196 196 197 197 200 200 202 202 199 200 196 197 198 201 205 211 215 220 222 225 228 232 235 236 237 235 238 239 243 246 246 251 252 255 255 259 259 264 267 265 268